Location: Spaichingen
(48.0400°N, 8.4300°E)
Time: 16:56:11
(UTC+02:00)

ISS - Visible Passes

Search period start: 26 May 2019 00:00
Search period end: 05 June 2019 00:00
Orbit: 408 x 418 km, 51.6° (Epoch: 27 May)

Date Brightness Start Highest point End Pass type
(mag) Time Alt. Az. Time Alt. Az. Time Alt. Az.
26 May -2.5 01:03:08 10° WNW 01:05:08 32° W 01:05:08 32° W visible
26 May -2.6 22:36:56 10° WNW 22:40:09 44° N 22:43:23 10° ENE visible
27 May -3.9 00:13:40 10° WNW 00:17:02 85° SSW 00:17:13 78° SE visible
27 May -2.5 21:47:23 10° WNW 21:50:35 42° N 21:53:49 10° ENE visible
27 May -3.6 23:24:13 10° WNW 23:27:34 70° NNE 23:29:19 25° E visible
28 May -1.5 01:01:08 10° W 01:02:08 16° W 01:02:08 16° W visible
28 May -3.1 22:34:44 10° WNW 22:38:03 55° NNE 22:41:21 10° E visible
29 May -3.1 00:11:30 10° WNW 00:14:15 40° SW 00:14:15 40° SW visible
29 May -3.8 23:21:57 10° WNW 23:25:17 65° SSW 23:26:24 37° SE visible
30 May -3.8 22:32:27 10° WNW 22:35:48 87° NNE 22:38:34 14° ESE visible
31 May -1.8 00:09:36 10° W 00:11:23 19° WSW 00:11:23 19° WSW visible
31 May -2.7 23:19:48 10° W 23:22:48 31° SW 23:23:35 27° S visible
01 Jun -3.3 22:30:09 10° WNW 22:33:23 48° SSW 22:35:48 16° SE visible
02 Jun -1.6 23:18:11 10° W 23:20:07 15° SW 23:20:53 14° SSW visible
03 Jun -2.1 22:28:05 10° W 22:30:48 23° SW 22:33:10 12° SSE visible
